Home > Weather > Sterling Heights > Past weeks

Flag for USA Past Weather in Sterling Heights, Michigan, USA — Yesterday and Last 2 Weeks

Now
87 °F

More clouds than sun.


Feels Like: 90 °F
Forecast: 67 / 92 °F
Wind: 10 mph from Southwest

Location: Selfridge Air National Guard Base

Current Time: Jun 26, 2016 at 1:25:30 PM

Latest Report: Jun 26, 2016 at 12:58 PM


Visibility: 10 mi

Pressure: 30.00 "Hg

Humidity: 53%

Dew Point: 68 °F

Location of Sterling HeightsLocation

Past Weather in Sterling Heights — Graph

°F

Sterling Heights Temperature Yesterday

Maximum temperature yesterday: 84 °F (at 4:58 PM)
Minimum temperature yesterday: 55 °F (at 5:58 AM)
Average temperature yesterday: 71 °F

High & Low Weather Summary for the Past Weeks

 TemperatureHumidityPressure
High91 °F (Jun 11, 3:58 PM)100% (Jun 16, 10:58 AM)30.28 "Hg (Jun 16, 10:58 AM)
Low48 °F (Jun 13, 3:58 AM)26% (Jun 17, 5:58 PM)29.65 "Hg (Jun 16, 7:58 AM)
Average70 °F60%29.99 "Hg
* Reported Jun 11 11:58 AM — Jun 26 11:58 AM, Sterling Heights, Weather by CustomWeather, © 2016

Note: Actual official high and low records may vary slightly from our data, if they occured in-between our weather recording intervals... More about our weather records

Advertising

Sterling Heights Weather History for the Previous 24 Hours

Scroll right to see more
 ConditionsComfort  
Time TempWeatherWind HumidityBarometerVisibility
11:58 AM
Sun, Jun 26
89 °FPartly sunny.13 mph51%30.02 "Hg10 mi
10:58 AM86 °FPartly sunny.14 mph53%30.03 "Hg10 mi
9:58 AM80 °FBroken clouds.9 mph59%30.04 "Hg10 mi
8:58 AM78 °FBroken clouds.8 mph65%30.04 "Hg10 mi
7:58 AM73 °FPartly sunny.5 mph75%30.04 "Hg10 mi
6:58 AM67 °FSunny.3 mph90%30.04 "Hg10 mi
5:58 AM65 °FClear.3 mph90%30.03 "Hg10 mi
4:58 AM65 °FClear.6 mph85%30.04 "Hg10 mi
3:58 AM66 °FClear.3 mph86%30.05 "Hg10 mi
2:58 AM65 °FClear.5 mph87%30.06 "Hg10 mi
1:58 AM66 °FClear.3 mph82%30.07 "Hg10 mi
12:58 AM66 °FClear.8 mph85%30.08 "Hg10 mi
11:58 PM
Sat, Jun 25
62 °FClear.9 mph88%30.09 "Hg10 mi
10:58 PM68 °FPassing clouds.8 mph77%30.09 "Hg12 mi
9:58 PM67 °FPassing clouds.9 mph78%30.08 "Hg12 mi
8:58 PM73 °FPassing clouds.9 mph53%30.06 "Hg10 mi
7:58 PM80 °FScattered clouds.7 mph42%30.08 "Hg10 mi
6:58 PM82 °FScattered clouds.9 mph35%30.08 "Hg10 mi
5:58 PM83 °FScattered clouds.13 mph32%30.09 "Hg10 mi
4:58 PM84 °FPassing clouds.10 mph34%30.11 "Hg10 mi
3:58 PM83 °FPassing clouds.10 mph35%30.12 "Hg10 mi
2:58 PM83 °FSunny.9 mph31%30.14 "Hg10 mi
1:58 PM82 °FSunny.10 mph33%30.14 "Hg10 mi
Weather by CustomWeather, © 2016

See weather overviewHow to use our weather pages